Погода в Задубровском

Россия / Кемеровская область (Кузбасс)     54°25′54″N   86°36′44″E
темп.,
°C
ветер,
м/с
пор.,
м/с
влажн.,
%
обл.,
%
осадки,
мм/ч
давл.,
гПа
погр.,
м
11 мая, вт
вт1101:00+8св5116371 0.0 1016259
04:00+7св51365100 0.0 1015345
07:00+8св51263100 0.0 1014552
10:00+13всв7841100 0.0 10131153
13:00+17всв7830100 0.0 10131915
16:00+18всв6725100 0.0 10132597
19:00+17св5834100 0.0 1014646
22:00+12ссв41155100 0.0 1016230
12 мая, ср
ср1201:00+11св41055100 0.0 1016165
04:00+9ссв4957100 0.0 1016145
07:00+11св41055100 0.0 1017256
10:00+16св5837100 0.0 10161371
13:00+18св6632100 0.0 10162454
16:00+19ссв653198 0.0 10152561
19:00+18ссв453541 0.0 10152249
22:00+14ссв495072 0.0 1016275
13 мая, чт
чт1301:00+11всв2454100 0.0 101677
04:00+11ссв015392 0.0 101610
07:00+11в115298 0.0 101774
10:00+15юв224157 0.0 1016587
13:00+19ююз123143 0.0 10152335
16:00+18зюз643896 0.0 10151941
19:00+18зюз5439100 0.0 10142214
22:00+13юз2260100 0.2 101425
14 мая, пт
пт1401:00+12сз61069100 0.8 1015469
04:00+11з3874100 0.2 1014613
07:00+11з5107394 0.3 1014691
10:00+11сз91263100 0.1 10141605
13:00+10сз811360 0.5 10181760
16:00+12сз8103136 0.0 10192276
19:00+11сз6932100 0.0 10212030
22:00+7сз2242100 0.0 102324
15 мая, сб
сб1501:00+7юз3445100 0.0 102384
04:00+6юз4104778 0.0 1021242
07:00+7зюз31050100 0.1 1020549
10:00+7ююз61461100 2.9 1018657
13:00+12з71154100 2.9 1016983
16:00+13с3659100 0.1 1016181
19:00+10с238599 0.3 1018242
22:00+9всв2387100 0.0 1019109